QPF
0.00 0.00 0.00 0.00 0.00 0.00 0.00 0.00 0.00 0.00 0.00 0.00 0.02 0.02 0.06 0.01 0.00 0.00 0.00 0.00 0.05 0.01 0.00 0.01 0.00 0.00 0.00 0.00 0.00 0.00 0.00 0.00 0.00
0.00 0.00 0.00 0.00 0.00 0.00 0.00 0.00 0.00 0.00 0.00 0.00 0.01 0.02 0.01 0.00 0.00 0.00 0.00 0.02 0.11 0.13 0.03 0.04 0.00 0.00 0.00 0.00 0.00 0.00 0.00 0.00 0.00
0.00 0.00 0.00 0.00 0.00 0.00 0.00 0.00 0.00 0.00 0.00 0.01 0.01 0.03 0.00 0.00 0.00 0.00 0.00 0.06 0.17 0.13 0.16 0.07 0.00 0.00 0.00 0.00 0.00 0.00 0.00 0.00 0.00
0.00 0.00 0.00 0.00 0.00 0.00 0.00 0.00 0.00 0.00 0.00 0.00 0.02 0.03 0.00 0.00 0.00 0.00 0.00 0.10 0.19 0.25 0.30 0.15 0.01 0.00 0.00 0.00 0.00 0.00 0.00 0.00 0.00
0.00 0.00 0.00 0.00 0.00 0.00 0.00 0.00 0.00 0.00 0.00 0.00 0.01 0.03 0.01 0.00 0.00 0.00 0.00 0.02 0.11 0.16 0.25 0.23 0.05 0.00 0.00 0.00 0.00 0.00 0.00 0.00 0.00
0.00 0.00 0.00 0.00 0.00 0.00 0.00 0.00 0.00 0.00 0.00 0.00 0.00 0.01 0.01 0.00 0.00 0.00 0.00 0.00 0.02 0.06 0.16 0.17 0.05 0.00 0.00 0.00 0.00 0.00 0.00 0.00 0.00
0.00 0.00 0.00 0.00 0.00 0.00 0.00 0.00 0.00 0.00 0.00 0.00 0.00 0.00 0.00 0.00 0.00 0.00 0.00 0.00 0.00 0.00 0.05 0.10 0.08 0.00 0.00 0.00 0.00 0.00 0.00 0.00 0.00
0.00 0.00 0.00 0.00 0.00 0.00 0.00 0.00 0.00 0.00 0.00 0.00 0.00 0.00 0.00 0.00 0.00 0.01 0.01 0.01 0.00 0.00 0.04 0.08 0.06 0.02 0.00 0.00 0.00 0.00 0.00 0.00 0.01
0.00 0.00 0.00 0.00 0.00 0.00 0.00 0.00 0.00 0.00 0.00 0.00 0.00 0.00 0.00 0.00 0.00 0.01 0.01 0.02 0.03 0.05 0.11 0.07 0.09 0.03 0.00 0.00 0.00 0.00 0.00 0.00 0.01
0.00 0.00 0.00 0.00 0.00 0.00 0.00 0.00 0.00 0.00 0.00 0.00 0.00 0.00 0.00 0.00 0.00 0.00 0.00 0.00 0.01 0.01 0.02 0.07 0.08 0.07 0.01 0.00 0.00 0.00 0.00 0.00 0.00
0.00 0.00 0.00 0.00 0.00 0.00 0.00 0.00 0.00 0.00 0.00 0.00 0.00 0.00 0.00 0.00 0.00 0.00 0.00 0.00 0.00 0.00 0.00 0.04 0.08 0.12 0.09 0.01 0.00 0.00 0.00 0.00 0.00
0.00 0.00 0.00 0.00 0.00 0.00 0.00 0.00 0.00 0.00 0.00 0.00 0.00 0.00 0.00 0.00 0.00 0.00 0.00 0.00 0.00 0.00 0.00 0.00 0.02 0.06 0.13 0.09 0.01 0.00 0.00 0.00 0.00
0.00 0.00 0.00 0.00 0.00 0.00 0.00 0.00 0.00 0.00 0.00 0.00 0.00 0.00 0.00 0.00 0.00 0.00 0.00 0.00 0.00 0.00 0.00 0.00 0.00 0.02 0.07 0.13 0.08 0.01 0.00 0.00 0.00
0.00 0.00 0.00 0.00 0.00 0.00 0.00 0.00 0.00 0.00 0.00 0.00 0.00 0.00 0.00 0.00 0.00 0.00 0.00 0.00 0.00 0.00 0.00 0.00 0.00 0.00 0.03 0.12 0.15 0.06 0.01 0.01 0.00
0.00 0.00 0.00 0.00 0.00 0.00 0.00 0.00 0.00 0.00 0.00 0.00 0.00 0.00 0.00 0.00 0.00 0.00 0.00 0.00 0.00 0.00 0.00 0.00 0.00 0.00 0.00 0.03 0.11 0.12 0.03 0.02 0.01
0.00 0.00 0.00 0.00 0.00 0.00 0.00 0.00 0.00 0.00 0.00 0.00 0.00 0.00 0.00 0.00 0.00 0.00 0.00 0.00 0.00 0.00 0.00 0.00 0.00 0.00 0.01 0.01 0.04 0.14 0.10 0.05 0.03
0.00 0.00 0.00 0.00 0.00 0.00 0.00 0.00 0.00 0.00 0.00 0.00 0.00 0.00 0.00 0.00 0.00 0.00 0.00 0.00 0.00 0.00 0.00 0.00 0.00 0.00 0.00 0.00 0.01 0.05 0.11 0.11 0.08
0.00 0.00 0.00 0.00 0.00 0.00 0.00 0.00 0.00 0.00 0.00 0.00 0.00 0.00 0.00 0.00 0.00 0.00 0.00 0.00 0.00 0.00 0.00 0.00 0.00 0.00 0.00 0.00 0.00 0.02 0.07 0.12 0.12
0.00 0.00 0.00 0.00 0.00 0.00 0.00 0.00 0.00 0.00 0.00 0.00 0.00 0.00 0.00 0.00 0.00 0.00 0.00 0.00 0.00 0.00 0.00 0.00 0.00 0.00 0.00 0.00 0.01 0.02 0.04 0.10 0.14
0.00 0.00 0.00 0.00 0.00 0.00 0.00 0.00 0.00 0.00 0.00 0.00 0.00 0.00 0.00 0.00 0.00 0.00 0.00 0.00 0.00 0.00 0.00 0.00 0.00 0.00 0.00 0.00 0.00 0.02 0.04 0.07 0.12
MSLP
1016.83 1016.76 1016.67 1016.54 1016.39 1016.24 1016.13 1016.00 1015.89 1015.82 1015.82 1015.84 1015.83 1015.91 1015.95 1016.26 1016.45 1016.43 1016.44 1016.41 1016.20 1016.17 1016.28 1016.34 1016.45 1016.69 1016.69 1016.60 1016.58 1016.71 1016.93 1016.91 1017.08
1017.20 1016.98 1016.91 1016.73 1016.62 1016.50 1016.45 1016.32 1016.23 1016.11 1015.99 1015.95 1015.95 1016.07 1016.19 1016.41 1016.55 1016.55 1016.52 1016.51 1016.34 1016.22 1016.30 1016.39 1016.60 1016.74 1016.96 1016.95 1016.95 1017.08 1017.10 1017.14 1017.25
1017.66 1017.41 1017.27 1017.15 1017.06 1016.89 1016.68 1016.61 1016.53 1016.45 1016.27 1016.11 1015.96 1016.10 1016.36 1016.66 1016.76 1016.79 1016.74 1016.47 1016.21 1016.23 1016.16 1016.50 1016.69 1016.87 1016.97 1017.21 1017.29 1017.35 1017.35 1017.42 1017.58
1018.08 1017.93 1017.70 1017.63 1017.52 1017.39 1017.26 1017.05 1017.11 1017.07 1016.79 1016.45 1016.24 1016.27 1016.50 1016.77 1016.87 1016.81 1016.79 1016.56 1016.18 1016.33 1016.33 1016.57 1016.67 1016.87 1017.06 1017.12 1017.27 1017.45 1017.61 1017.61 1017.72
1018.50 1018.42 1018.23 1018.13 1018.02 1017.91 1017.75 1017.60 1017.52 1017.48 1017.30 1017.06 1016.76 1016.32 1016.42 1016.88 1017.05 1017.00 1016.89 1016.58 1016.56 1016.31 1016.48 1016.60 1016.73 1016.92 1017.12 1017.32 1017.32 1017.33 1017.78 1017.80 1017.81
1019.11 1018.81 1018.68 1018.59 1018.44 1018.35 1018.21 1018.09 1018.00 1017.95 1017.86 1017.57 1017.32 1017.12 1017.07 1016.89 1017.12 1017.13 1017.02 1016.71 1016.46 1016.44 1016.43 1016.54 1016.69 1016.70 1016.97 1017.20 1017.36 1017.41 1017.76 1017.91 1018.01
1019.47 1019.29 1019.13 1018.97 1018.97 1018.84 1018.77 1018.63 1018.57 1018.50 1018.52 1018.37 1018.07 1018.01 1017.80 1017.56 1017.39 1017.28 1017.04 1016.78 1016.50 1016.31 1016.29 1016.24 1016.54 1016.64 1016.71 1016.99 1017.18 1017.35 1017.70 1017.89 1017.98
1019.82 1019.79 1019.70 1019.62 1019.45 1019.51 1019.36 1019.23 1019.16 1019.12 1019.04 1018.89 1018.74 1018.56 1018.29 1018.14 1017.81 1017.43 1017.06 1016.74 1016.46 1016.19 1016.14 1016.07 1016.24 1016.45 1016.48 1016.72 1016.93 1017.04 1017.48 1017.70 1017.91
1020.26 1020.31 1020.26 1020.17 1020.10 1019.94 1019.83 1019.79 1019.65 1019.56 1019.43 1019.40 1019.27 1019.14 1018.90 1018.62 1018.34 1018.05 1017.60 1017.15 1016.63 1016.20 1016.07 1015.99 1015.95 1016.11 1016.15 1016.28 1016.55 1016.78 1017.09 1017.43 1017.64
1020.40 1020.56 1020.51 1020.50 1020.34 1020.29 1020.24 1020.11 1020.00 1019.95 1019.83 1019.74 1019.66 1019.49 1019.32 1019.07 1018.80 1018.48 1018.14 1017.77 1017.31 1016.75 1016.24 1015.91 1015.70 1015.64 1015.73 1015.95 1016.14 1016.38 1016.71 1017.07 1017.34
1020.57 1020.74 1020.78 1020.70 1020.54 1020.41 1020.41 1020.41 1020.35 1020.30 1020.15 1019.96 1019.88 1019.83 1019.67 1019.39 1019.13 1018.80 1018.51 1018.07 1017.77 1017.54 1017.11 1016.51 1015.93 1015.47 1015.45 1015.50 1015.66 1015.87 1016.24 1016.64 1016.94
1020.63 1020.84 1020.88 1020.83 1020.61 1020.48 1020.50 1020.46 1020.39 1020.43 1020.28 1020.37 1019.98 1019.82 1019.71 1019.55 1019.34 1019.16 1018.88 1018.62 1018.28 1018.15 1017.81 1017.16 1016.65 1015.89 1015.23 1015.06 1015.21 1015.33 1015.79 1016.13 1016.43
1020.54 1020.73 1020.82 1020.77 1020.74 1020.81 1020.87 1020.85 1020.74 1020.75 1020.74 1020.61 1020.37 1020.16 1019.84 1019.63 1019.45 1019.32 1019.11 1019.03 1018.70 1018.43 1018.10 1017.67 1017.00 1016.39 1015.62 1014.72 1014.73 1014.82 1015.11 1015.60 1015.88
1020.43 1020.62 1020.75 1020.74 1020.92 1021.06 1021.06 1020.98 1021.04 1021.12 1020.98 1020.72 1020.41 1020.12 1019.97 1019.66 1019.27 1019.30 1019.13 1018.95 1018.83 1018.68 1018.24 1017.91 1017.32 1016.63 1015.97 1015.27 1014.33 1014.53 1014.52 1014.90 1015.20
1020.43 1020.62 1020.74 1020.76 1020.97 1021.11 1021.09 1021.18 1021.14 1021.25 1021.21 1021.05 1020.83 1020.37 1020.22 1019.81 1019.62 1019.29 1018.86 1018.72 1018.50 1018.46 1018.32 1017.87 1017.42 1016.75 1016.07 1015.63 1014.92 1013.87 1013.98 1014.10 1014.52
1020.35 1020.57 1020.65 1020.74 1020.97 1021.10 1021.21 1021.34 1021.49 1021.46 1021.32 1021.51 1021.14 1020.55 1020.06 1019.97 1019.63 1019.39 1019.25 1018.70 1018.13 1018.21 1018.24 1018.06 1017.56 1016.88 1016.31 1015.78 1015.42 1014.82 1013.21 1013.24 1013.81
1020.13 1020.32 1020.46 1020.64 1020.93 1021.06 1021.22 1021.42 1021.74 1021.77 1021.49 1021.64 1021.62 1021.22 1020.61 1020.06 1019.39 1019.25 1018.95 1018.79 1018.50 1018.23 1017.80 1017.71 1017.52 1017.03 1016.43 1015.83 1015.26 1014.71 1014.19 1012.53 1012.98
1019.87 1020.05 1020.25 1020.50 1020.79 1020.96 1021.09 1021.25 1021.60 1021.84 1021.52 1021.44 1021.69 1021.44 1021.18 1019.87 1018.77 1018.67 1018.44 1018.47 1018.26 1017.94 1017.63 1017.23 1016.94 1016.78 1016.32 1015.41 1014.96 1014.58 1014.01 1013.27 1011.94
1019.53 1019.72 1019.96 1020.27 1020.61 1020.80 1020.86 1020.85 1021.09 1021.47 1021.65 1021.45 1021.21 1021.18 1021.07 1020.87 1018.78 1018.25 1018.12 1018.04 1017.75 1017.41 1016.98 1016.72 1016.50 1016.35 1016.02 1015.15 1014.40 1014.05 1013.90 1013.21 1011.66
1019.27 1019.39 1019.68 1019.95 1020.28 1020.48 1020.58 1020.57 1020.79 1021.00 1021.16 1021.19 1021.14 1021.11 1020.94 1020.90 1020.95 1018.97 1016.87 1017.23 1017.06 1016.79 1016.63 1016.19 1015.90 1015.61 1015.31 1014.65 1013.93 1013.68 1013.60 1013.21 1012.69
Thickness
5748 5747 5747 5747 5747 5747 5746 5745 5745 5744 5744 5743 5742 5741 5740 5737 5735 5734 5733 5731 5731 5730 5730 5731 5731 5729 5728 5729 5729 5729 5728 5729 5729
5743 5744 5744 5744 5744 5744 5743 5743 5742 5741 5741 5740 5740 5738 5736 5735 5732 5732 5730 5729 5727 5727 5726 5726 5725 5725 5724 5724 5725 5724 5724 5724 5725
5738 5739 5739 5739 5739 5739 5740 5739 5738 5737 5736 5736 5737 5735 5733 5730 5729 5728 5727 5727 5726 5725 5725 5721 5720 5719 5720 5719 5719 5719 5719 5720 5719
5733 5733 5734 5734 5734 5734 5733 5733 5731 5731 5731 5731 5732 5732 5730 5728 5726 5725 5725 5725 5724 5723 5722 5719 5718 5715 5713 5715 5715 5715 5715 5715 5716
5728 5727 5727 5727 5727 5727 5727 5726 5725 5724 5724 5725 5725 5728 5727 5724 5722 5722 5722 5722 5720 5720 5718 5716 5714 5712 5709 5708 5711 5712 5710 5711 5712
5723 5722 5721 5721 5721 5720 5720 5719 5718 5718 5717 5718 5718 5719 5719 5719 5718 5718 5718 5718 5718 5716 5715 5714 5712 5711 5707 5704 5703 5706 5706 5706 5707
5716 5716 5716 5715 5715 5714 5713 5712 5711 5711 5710 5710 5711 5711 5711 5711 5712 5713 5713 5714 5714 5714 5712 5712 5709 5708 5706 5701 5697 5699 5701 5702 5703
5711 5710 5710 5709 5708 5707 5706 5706 5704 5703 5703 5703 5703 5703 5704 5704 5704 5706 5708 5710 5711 5711 5710 5709 5708 5707 5706 5701 5696 5695 5697 5698 5699
5704 5702 5701 5701 5699 5699 5698 5697 5697 5696 5695 5694 5694 5694 5694 5695 5695 5696 5699 5702 5705 5707 5707 5706 5705 5704 5705 5702 5698 5695 5694 5695 5696
5697 5695 5694 5693 5692 5692 5691 5690 5689 5688 5686 5685 5685 5684 5685 5685 5686 5687 5688 5690 5693 5697 5700 5701 5703 5703 5703 5701 5699 5697 5694 5693 5693
5691 5688 5686 5686 5685 5684 5683 5681 5680 5679 5678 5677 5675 5674 5674 5675 5676 5677 5679 5681 5682 5684 5688 5691 5695 5699 5699 5700 5699 5697 5695 5692 5692
5684 5681 5679 5678 5677 5676 5674 5673 5672 5670 5669 5667 5668 5666 5666 5666 5666 5666 5667 5668 5670 5670 5673 5680 5683 5689 5695 5697 5697 5697 5693 5692 5692
5678 5675 5672 5670 5669 5667 5664 5663 5662 5660 5658 5657 5657 5657 5657 5657 5657 5656 5655 5655 5656 5657 5659 5664 5670 5677 5684 5691 5692 5694 5692 5689 5688
5672 5668 5665 5663 5660 5657 5655 5653 5651 5648 5647 5648 5647 5647 5645 5645 5646 5645 5644 5644 5643 5644 5645 5648 5655 5662 5670 5677 5685 5686 5690 5688 5687
5664 5661 5658 5655 5651 5648 5646 5642 5640 5637 5635 5637 5636 5636 5634 5634 5631 5630 5629 5630 5630 5630 5632 5634 5638 5646 5655 5663 5671 5680 5684 5687 5685
5656 5652 5649 5646 5642 5638 5635 5630 5627 5624 5623 5619 5621 5622 5622 5620 5618 5616 5613 5610 5610 5610 5608 5612 5618 5625 5634 5644 5652 5663 5677 5683 5681
5649 5645 5641 5636 5631 5627 5622 5618 5613 5609 5608 5605 5601 5600 5602 5603 5604 5596 5590 5585 5583 5577 5576 5577 5582 5595 5609 5623 5634 5647 5658 5674 5676
5641 5637 5632 5627 5622 5616 5612 5607 5602 5597 5594 5590 5583 5578 5575 5589 5590 5578 5565 5554 5541 5531 5525 5524 5530 5546 5571 5596 5615 5629 5643 5656 5672
5634 5629 5624 5619 5613 5608 5603 5599 5593 5586 5579 5573 5568 5560 5553 5546 5564 5564 5537 5519 5506 5489 5477 5475 5479 5494 5523 5557 5589 5611 5626 5641 5661
5627 5622 5616 5611 5605 5600 5595 5589 5582 5575 5567 5559 5552 5542 5531 5517 5501 5516 5523 5500 5479 5467 5457 5455 5456 5462 5484 5522 5557 5585 5608 5625 5639